Temp
12 12 10 10 10 10 10 10 9 8 8 8 8 8 8 8 8 7 7 6 6 5 5 4 4 4 4 4 4 4 3 2
12 11 10 10 10 10 10 10 9 8 8 8 8 8 8 8 8 7 6 6 5 5 4 4 4 4 4 4 4 3 2 1
12 11 10 10 10 10 10 10 9 8 8 8 7 7 7 7 7 7 6 6 5 5 4 4 4 4 4 4 3 3 2 2
12 11 10 10 10 10 10 9 9 8 8 7 7 7 7 7 7 7 6 5 5 5 4 4 4 4 3 3 3 3 2 2
12 12 11 10 10 10 10 9 9 8 8 7 7 7 7 7 7 7 6 5 5 4 4 4 4 3 3 3 3 3 2 2
12 11 11 10 10 10 9 9 8 8 8 7 7 7 7 7 7 6 5 5 4 3 4 3 3 3 3 3 2 2 2 2
11 11 10 10 10 9 9 9 9 8 8 8 7 8 8 8 7 6 5 4 4 4 3 3 3 2 2 2 2 2 2 1
12 11 11 10 10 10 9 9 9 9 8 8 8 8 8 8 7 5 4 4 4 3 3 3 2 2 2 2 2 1 1 0
12 11 10 10 10 10 10 9 9 9 8 8 8 8 7 7 6 5 4 4 3 3 2 2 2 2 1 1 1 0 -0 -1
12 11 10 10 9 9 9 9 8 8 8 8 7 7 7 6 5 4 4 3 3 2 2 2 1 1 1 0 -0 -1 -1 -2
11 11 10 9 9 9 9 8 8 8 8 7 7 7 6 6 5 4 3 3 2 2 1 1 1 1 0 -0 -1 -1 -2 -3
11 11 10 9 9 9 8 8 7 7 7 7 7 6 6 5 5 4 3 2 2 1 1 1 0 0 -1 -1 -2 -3 -3 -3
10 10 10 9 8 8 8 8 7 7 7 6 6 6 5 4 4 3 3 2 1 1 0 0 -0 -1 -2 -2 -3 -3 -3 -4
10 9 9 8 8 8 8 7 7 6 6 6 5 5 5 4 3 2 2 1 1 0 -0 -1 -1 -2 -2 -2 -3 -4 -4 -5
9 9 9 8 8 7 7 7 6 6 5 5 4 4 4 3 3 2 1 1 0 -1 -1 -2 -2 -3 -4 -4 -4 -5 -5 -5
8 8 8 8 7 7 6 6 6 5 5 4 4 3 3 3 2 2 1 0 -1 -2 -2 -3 -4 -3 -5 -5 -5 -6 -5 -6
8 8 7 7 7 6 6 5 5 5 4 4 3 3 3 2 2 1 -0 -1 -1 -3 -5 -4 -4 -4 -5 -5 -5 -5 -6 -7
7 7 6 6 6 6 6 5 5 4 4 3 3 3 2 1 -0 -1 -1 -1 -2 -4 -5 -4 -5 -6 -6 -6 -6 -7 -7 -7
7 6 6 6 5 5 5 5 4 4 3 3 2 2 1 -0 -0 -0 -1 -3 -3 -4 -4 -6 -6 -7 -7 -7 -7 -7 -7 -7
Height
3150 3148 3149 3150 3149 3148 3147 3148 3149 3152 3153 3153 3154 3155 3156 3156 3155 3155 3155 3155 3154 3153 3152 3149 3149 3148 3147 3146 3145 3143 3140 3139
3146 3144 3145 3145 3146 3145 3144 3144 3145 3147 3148 3149 3150 3151 3151 3152 3152 3152 3152 3151 3150 3149 3149 3147 3147 3146 3146 3144 3142 3140 3139 3137
3140 3139 3140 3141 3141 3142 3140 3139 3140 3141 3142 3143 3144 3146 3146 3147 3147 3147 3148 3147 3147 3146 3146 3145 3144 3143 3142 3141 3139 3138 3137 3136
3135 3136 3136 3137 3137 3137 3135 3135 3136 3137 3138 3139 3140 3141 3142 3143 3143 3143 3143 3144 3144 3144 3143 3142 3140 3140 3139 3138 3137 3136 3134 3134
3129 3129 3130 3132 3133 3133 3131 3131 3132 3133 3134 3135 3136 3137 3139 3139 3139 3139 3141 3141 3141 3140 3139 3138 3138 3136 3136 3135 3134 3133 3132 3130
3124 3124 3126 3127 3127 3127 3126 3127 3127 3129 3130 3131 3132 3134 3135 3135 3136 3137 3137 3138 3137 3137 3136 3136 3135 3134 3132 3132 3131 3129 3127 3125
3118 3118 3119 3120 3121 3121 3121 3122 3123 3124 3126 3127 3129 3130 3131 3131 3132 3132 3132 3132 3132 3132 3132 3132 3131 3130 3128 3126 3126 3124 3122 3120
3109 3110 3113 3114 3116 3116 3118 3119 3120 3120 3122 3123 3125 3126 3126 3127 3128 3128 3129 3129 3129 3128 3127 3126 3126 3125 3123 3121 3120 3118 3117 3115
3101 3102 3106 3109 3111 3112 3113 3114 3115 3117 3118 3119 3121 3122 3123 3123 3123 3123 3124 3125 3124 3124 3123 3122 3120 3119 3118 3116 3114 3113 3111 3110
3094 3095 3099 3102 3105 3107 3108 3109 3111 3112 3114 3115 3116 3118 3118 3119 3119 3119 3120 3120 3120 3119 3118 3117 3115 3113 3113 3111 3109 3107 3106 3105
3088 3090 3093 3097 3100 3102 3103 3104 3106 3108 3109 3110 3112 3113 3113 3113 3114 3115 3115 3115 3115 3114 3114 3112 3110 3108 3106 3105 3104 3102 3100 3099
3083 3084 3087 3090 3094 3096 3098 3099 3101 3102 3104 3105 3107 3108 3109 3109 3109 3109 3110 3109 3109 3108 3107 3105 3103 3100 3099 3098 3097 3096 3094 3092
3077 3078 3080 3084 3088 3090 3092 3094 3096 3098 3098 3100 3101 3102 3103 3104 3104 3104 3104 3103 3102 3101 3099 3098 3096 3094 3092 3091 3090 3089 3088 3085
3069 3071 3074 3078 3082 3085 3086 3088 3090 3092 3093 3095 3096 3097 3097 3098 3097 3097 3096 3096 3095 3094 3091 3090 3088 3085 3083 3081 3079 3078 3077 3076
3063 3065 3069 3073 3076 3078 3079 3082 3085 3086 3087 3089 3091 3092 3092 3091 3090 3090 3089 3088 3087 3085 3083 3080 3079 3076 3075 3073 3070 3068 3068 3068
3054 3058 3063 3068 3070 3072 3073 3076 3079 3081 3082 3084 3086 3086 3085 3084 3084 3083 3082 3080 3078 3076 3074 3071 3069 3066 3065 3063 3063 3062 3060 3058
3047 3052 3058 3061 3064 3066 3067 3070 3072 3075 3077 3077 3078 3077 3077 3077 3077 3076 3074 3073 3069 3066 3064 3059 3058 3059 3058 3056 3055 3054 3051 3050
3042 3046 3051 3054 3057 3060 3061 3064 3066 3068 3069 3069 3069 3069 3069 3068 3066 3065 3062 3058 3055 3054 3051 3051 3052 3052 3051 3048 3046 3045 3043 3041
3036 3040 3044 3048 3051 3053 3055 3058 3060 3060 3061 3061 3061 3061 3061 3061 3059 3056 3050 3048 3042 3042 3043 3043 3044 3045 3044 3042 3040 3038 3035 3032
Wind_Speed
22 27 29 25 24 26 25 21 18 16 12 14 12 12 13 14 14 14 17 18 18 16 16 18 19 20 19 17 15 14 14 10
26 31 31 28 26 27 25 23 20 17 14 14 15 15 16 16 16 18 19 19 19 17 17 18 20 20 18 16 13 12 9 10
28 34 32 28 28 28 23 22 21 18 17 17 18 19 19 20 20 21 21 21 20 20 19 19 20 19 15 12 10 9 11 14
29 30 25 27 29 26 22 20 21 21 20 21 21 22 23 24 22 22 22 21 21 20 20 19 18 16 14 14 13 14 14 17
30 34 28 28 28 25 22 23 22 22 22 23 22 23 23 22 23 22 22 21 20 20 20 18 18 18 17 17 19 19 20 22
32 33 33 29 29 25 21 23 23 22 22 21 22 23 22 23 22 19 19 20 20 19 19 18 18 19 20 22 24 24 26 26
27 27 33 30 29 24 21 22 23 23 23 21 21 21 20 20 18 18 20 19 19 19 19 19 20 23 23 24 25 27 27 27
22 23 24 28 26 23 20 22 21 21 20 20 20 20 19 18 18 18 17 17 18 19 20 20 23 26 26 26 27 26 25 25
20 21 26 30 26 22 18 23 23 22 21 21 20 19 17 16 17 17 17 18 20 21 21 23 26 27 27 26 25 24 23 23
22 27 28 32 27 19 20 24 24 23 22 22 19 17 15 15 17 18 19 21 21 22 24 26 27 27 25 24 24 23 23 22
25 28 29 31 27 22 21 26 25 24 23 21 18 16 17 18 19 20 21 22 24 24 26 27 27 27 27 26 26 26 25 25
27 29 31 30 28 23 25 27 27 25 22 20 19 17 17 20 22 22 23 24 26 27 27 27 27 28 28 28 27 28 28 28
28 29 31 31 27 24 25 28 28 24 22 21 19 19 21 21 22 24 26 27 29 30 29 29 30 31 31 30 29 29 30 31
32 36 35 30 26 25 24 29 29 25 22 21 21 21 22 22 23 26 30 32 33 32 31 32 33 34 33 33 32 30 31 30
30 34 33 29 25 25 24 29 30 26 23 22 22 23 25 26 28 31 33 35 35 35 36 35 36 32 31 32 30 30 29 30
32 33 35 28 25 24 21 28 31 28 26 25 25 26 28 30 33 35 37 37 38 39 39 37 35 32 30 29 31 32 31 31
27 24 27 27 24 21 17 21 27 30 28 29 30 32 35 36 36 39 41 39 39 35 34 30 28 39 40 32 34 33 42 42
24 23 26 25 22 20 18 18 21 25 30 33 33 34 38 38 39 42 41 38 36 34 24 34 27 33 33 35 38 33 35 39
32 27 24 23 23 23 28 25 25 30 33 35 32 41 41 41 43 42 40 35 40 32 39 30 26 29 30 30 34 36 37 38
Wind_Direction
306 300 290 297 303 313 305 288 271 266 253 253 252 252 260 265 271 281 282 282 285 289 292 296 299 303 307 305 301 288 282 277
296 292 284 291 293 304 298 282 270 261 254 254 256 261 266 271 274 275 276 280 282 284 289 291 296 300 302 305 300 298 289 286
289 283 279 282 285 301 291 273 262 257 257 259 264 268 277 282 282 279 279 278 279 283 286 287 290 294 298 303 309 305 300 299
284 281 276 276 281 298 288 264 255 248 250 257 265 270 275 280 280 274 272 271 275 280 280 284 285 284 293 302 306 307 305 302
286 279 275 272 275 289 282 259 248 245 246 253 260 265 271 273 267 268 265 267 272 272 274 280 280 283 288 293 299 300 299 298
277 277 270 271 275 285 277 257 245 241 244 246 253 261 265 265 267 266 261 265 267 265 271 274 279 281 284 289 291 294 293 294
268 264 258 264 273 285 270 257 247 241 242 246 253 260 265 260 258 256 258 261 260 266 271 272 276 281 283 285 287 290 289 290
264 255 258 267 273 281 262 255 248 243 239 245 254 256 256 256 256 257 258 257 263 266 268 273 280 284 285 286 286 285 284 286
271 263 259 263 266 264 271 255 245 237 238 245 250 252 254 257 261 258 255 259 265 269 273 278 283 283 284 285 283 282 284 286
266 260 257 257 259 257 273 249 241 234 236 244 252 255 258 263 257 256 262 266 269 272 275 282 283 283 282 281 283 286 288 292
260 260 258 256 252 252 265 247 238 233 238 248 254 254 257 259 260 260 262 266 269 272 276 281 279 278 279 282 285 287 289 292
260 259 254 249 245 255 258 249 238 236 242 250 254 257 258 259 260 259 262 265 269 270 274 275 274 276 280 281 282 282 284 284
251 254 249 245 245 255 259 252 238 237 243 248 255 262 261 259 260 263 265 267 267 270 274 277 278 280 279 278 276 278 282 283
245 244 244 243 246 258 256 247 236 238 243 249 257 266 271 267 262 263 268 271 275 277 282 283 283 282 284 282 284 285 282 283
249 243 243 241 251 256 252 244 236 238 245 254 261 267 273 272 273 274 274 276 277 279 280 279 279 281 281 281 279 278 283 287
242 240 243 244 250 254 250 242 239 243 248 257 264 263 267 272 275 275 275 276 276 273 274 272 270 271 267 273 287 285 283 285
231 232 237 236 245 254 259 247 248 252 257 265 267 271 282 279 276 275 275 274 262 264 270 251 264 287 279 284 274 275 274 282
234 224 228 240 246 256 258 262 267 265 265 266 271 287 277 269 270 269 268 246 259 251 266 306 287 294 290 276 282 294 298 294
239 234 239 243 246 254 257 252 260 263 267 269 267 282 266 262 259 250 236 247 251 252 294 310 296 294 293 294 293 288 288 287